Regional Weather Roundup
Issued by NWS

Home | Current Version | Previous Version | Text Only | Print | Product List | Glossary Off
Versions: 1 2 3 4 5 6 7 8 9 10 11 12 13 14 15 16 17 18 19 20 21 22 23 24 25 26 27 28 29 30 31 32 33 34 35 36 37 38 39 40 41 42 43 44 45 46 47 48 49

000
ASUS45 KCYS 020610
RWRWY

WYOMING REGIONAL WEATHER ROUNDUP
NATIONAL WEATHER SERVICE CHEYENNE WY
1200 AM MDT SUN AUG 02 2015

NOTE:  "FAIR" INDICATES FEW OR NO CLOUDS BELOW 12,000 FEET
WITH NO SIGNIFICANT WEATHER AND/OR OBSTRUCTIONS TO VISIBILITY.

WYZ001-020700-
YELLOWSTONE NATIONAL PARK

CITY           SKY/WX    TMP DP  RH WIND       PRES   REMARKS
LK YELLOWSTONE   N/A     48  34  58 CALM      30.34S
6HR MIN TEMP:  47; 6HR MAX TEMP:  76;

W YELLOWSTONE  NOT AVBL

$$
WYZ002>013-054>058-071-098>099-020700-
NORTHERN WYOMING

CITY           SKY/WX    TMP DP  RH WIND       PRES   REMARKS
JACKSON        NOT AVBL
CODY           FAIR      72  34  25 SW9       30.08F
GREYBULL       FAIR      75  33  21 SE3       29.96S
6HR MIN TEMP:  73; 6HR MAX TEMP:  97;

WORLAND        FAIR      67  23  19 E9        29.99S
6HR MIN TEMP:  66; 6HR MAX TEMP:  95;

SHERIDAN       FAIR      65  37  35 CALM      29.98S
6HR MIN TEMP:  64; 6HR MAX TEMP:  94;

BUFFALO        FAIR      71  28  20 W8        30.06F
6HR MIN TEMP:  69; 6HR MAX TEMP:  91;

GILLETTE       FAIR      60  33  36 S9        29.99F
6HR MIN TEMP:  59; 6HR MAX TEMP:  93;

HULETT         FAIR      61  37  41 S3        30.00S
NEWCASTLE      FAIR      68  46  45 CALM      30.02R

$$
WYZ014>020-022>026-101>103-020700-
CENTRAL WYOMING

CITY           SKY/WX    TMP DP  RH WIND       PRES   REMARKS
BIG PINEY      FAIR      58  31  35 NE3       30.25S
6HR MIN TEMP:  58; 6HR MAX TEMP:  86;

PINEDALE       FAIR      52  34  50 NW10      30.26R
DUBOIS         FAIR      57  30  35 NW9       30.27R
LANDER         FAIR      71  31  22 SW14      30.10S
6HR MIN TEMP:  71; 6HR MAX TEMP:  91;

RIVERTON       FAIR      68  21  16 W6        30.11R
6HR MIN TEMP:  68; 6HR MAX TEMP:  92;

CASPER         FAIR      60  32  34 N8        30.08F
6HR MIN TEMP:  58; 6HR MAX TEMP:  92;

DOUGLAS        FAIR      69  51  52 E10       30.07F
6HR MIN TEMP:  67; 6HR MAX TEMP:  94;


$$
WYZ021-027>030-104>119-020700-
SOUTHERN WYOMING

CITY           SKY/WX    TMP DP  RH WIND       PRES   REMARKS
EVANSTON       FAIR      66  27  23 S6        30.25S
6HR MIN TEMP:  65; 6HR MAX TEMP:  86;

KEMMERER       FAIR      61  30  31 N12       30.26S
FORT BRIDGER   CLEAR     66  28  24 MISG      30.26S
ROCK SPRINGS   FAIR      66  23  19 N5        30.19S
6HR MIN TEMP:  63; 6HR MAX TEMP:  84;

DIXON          FAIR      57  40  52 CALM      30.21S
RAWLINS        FAIR      69  36  29 NE9       30.19S
6HR MIN TEMP:  66; 6HR MAX TEMP:  88;

SARATOGA       FAIR      59  30  33 CALM      30.21S
LARAMIE        FAIR      62  43  49 S7        30.24R
6HR MIN TEMP:  60; 6HR MAX TEMP:  82;

CHEYENNE       FAIR      65  53  65 S8        30.17S
6HR MIN TEMP:  64; 6HR MAX TEMP:  84;

TORRINGTON     FAIR      63  57  81 NE6       30.03S
6HR MIN TEMP:  63; 6HR MAX TEMP:  91;

PINE BLUFFS    FAIR      68  52  56 SE15G22   30.11S

$$


USA.gov is the U.S. government's official web portal to all federal, state and local government web resources and services.